Wind_Speed
2 2 3 3 4 5 6 7 8 8 7 5 4 3 3 3 3 4 4 4 5 5 5 5 5 6 6 6 6 5 5 5 5 5 5 4 5 4 4 5 5 5 6
4 4 5 5 5 6 7 9 9 9 8 7 6 4 4 3 2 2 2 3 3 3 3 3 3 4 4 4 4 4 4 4 3 3 3 3 4 4 4 4 5 5 6
6 7 7 7 7 8 9 10 11 11 10 9 7 6 5 4 4 3 3 2 2 2 2 1 2 2 2 2 2 2 2 2 2 2 2 2 3 3 3 4 4 5 6
8 8 9 8 9 9 10 11 12 12 11 10 9 8 7 6 6 5 5 4 4 3 3 3 2 2 2 2 1 1 0 0 0 0 1 1 1 2 3 3 4 5 6
9 10 10 10 10 11 12 12 13 13 13 12 11 10 9 9 8 8 8 7 6 6 5 5 5 5 4 4 4 3 3 2 2 2 2 2 2 2 3 3 4 5 6
10 11 11 11 11 12 13 13 14 14 14 13 12 12 11 11 11 11 10 10 9 9 8 8 7 7 7 7 6 6 6 5 5 5 4 4 4 4 4 4 5 5 6
11 11 11 11 12 13 14 14 15 15 14 14 14 14 14 14 14 14 13 12 12 12 11 10 10 10 10 10 9 9 9 8 8 7 7 7 6 6 6 6 6 7 7
12 11 12 12 13 13 14 15 16 16 16 17 17 17 17 17 17 16 16 15 14 14 14 13 13 13 13 13 13 12 12 11 11 11 10 10 9 9 9 9 8 8 8
14 13 14 14 14 15 15 16 17 18 19 19 20 20 20 19 19 19 18 18 17 16 16 16 16 16 16 16 16 15 15 14 14 14 13 13 12 12 11 11 11 11 10
15 15 16 16 16 17 17 18 19 20 21 22 22 23 23 23 22 21 21 20 19 18 18 18 18 18 18 17 18 18 18 17 17 17 16 16 15 15 15 14 14 13 13
18 18 18 19 19 20 20 21 22 22 23 24 24 25 26 26 25 24 23 22 21 20 20 19 19 19 19 19 19 19 19 20 20 20 19 18 18 18 18 18 17 16 15
19 20 20 21 21 22 23 24 25 26 26 27 28 28 28 28 27 27 26 25 24 23 21 21 20 20 20 20 19 19 20 21 21 21 21 21 21 20 20 20 20 20 19
21 22 22 22 23 24 25 26 27 28 29 30 31 30 30 29 29 29 29 28 26 25 24 22 21 20 20 20 20 20 20 21 22 22 22 22 22 22 22 22 22 22 22
24 25 25 25 25 27 28 28 30 31 32 32 33 33 33 32 32 32 31 30 28 26 25 24 23 22 21 20 20 20 20 20 21 21 22 22 23 23 23 24 24 24 23
27 28 29 29 29 30 30 30 32 34 33 34 35 35 35 35 35 34 32 31 30 28 27 25 24 24 22 22 21 20 19 20 21 21 21 22 22 22 23 24 24 25 25
29 30 31 32 33 33 33 33 34 35 35 36 36 37 37 37 36 36 35 34 32 31 29 27 26 25 24 23 22 21 20 21 21 20 21 20 22 22 22 24 25 25 26
32 33 34 35 36 36 37 37 35 35 35 36 37 37 37 38 38 38 36 36 34 32 30 29 28 26 24 24 23 21 21 20 20 19 19 19 19 21 21 23 25 25 27
34 35 36 37 38 39 40 39 36 37 37 38 38 37 37 38 39 38 37 37 34 32 30 29 28 27 25 24 23 21 21 20 20 19 19 19 19 20 20 21 23 24 24
36 37 37 37 39 39 40 39 38 38 38 38 37 37 36 36 37 39 37 37 34 32 30 28 27 26 25 23 22 21 20 20 20 19 19 19 19 19 20 20 21 23 23
37 38 39 40 40 39 39 40 39 38 37 35 35 36 35 37 36 36 35 35 33 31 29 27 26 25 25 24 23 22 21 21 20 19 19 19 19 19 19 20 20 22 23
37 38 39 40 40 41 41 40 39 38 37 36 34 33 35 34 34 34 35 35 32 30 28 27 26 25 25 24 24 23 22 22 21 20 19 19 19 19 19 19 19 20 21
36 38 39 40 41 41 39 38 37 37 37 35 32 30 30 30 30 31 31 31 29 27 26 27 26 25 25 25 24 23 23 22 22 21 21 20 19 19 19 19 19 19 18
36 38 39 38 38 37 37 37 36 36 35 33 32 31 29 27 28 31 31 29 28 27 27 27 27 27 26 26 25 25 24 24 23 23 22 21 21 20 19 19 18 18 17
36 37 37 38 38 37 37 37 38 38 36 35 34 33 31 30 31 31 31 32 31 29 29 28 29 29 28 28 28 27 27 26 25 25 24 24 23 22 21 20 19 18 18
35 36 37 38 39 40 39 40 39 39 39 38 37 35 34 33 32 32 32 33 33 32 31 31 31 31 30 30 30 30 29 29 28 28 27 26 25 24 23 22 21 20 19
38 39 40 41 41 41 42 42 42 42 42 42 41 40 39 37 36 35 34 35 35 35 34 34 34 34 33 33 33 33 32 32 32 31 31 30 29 27 26 25 23 22 21
Wind_Direction
310 315 323 332 330 328 324 320 318 318 321 326 336 351 12 34 52 62 64 65 62 60 59 59 59 61 62 62 62 63 65 70 76 82 90 102 113 120 128 132 129 128 132
299 303 306 311 314 315 313 312 311 311 312 315 319 325 333 345 2 23 36 43 47 47 48 49 52 52 55 59 60 61 62 67 75 83 92 103 116 126 137 143 144 142 141
295 298 300 302 306 308 307 306 306 305 305 308 310 312 315 318 322 330 337 343 347 350 355 8 17 24 28 36 47 55 58 58 74 87 97 109 122 130 139 150 153 155 155
295 296 298 299 303 304 304 303 303 303 302 302 304 305 305 306 306 306 306 305 302 299 294 293 297 305 306 304 306 302 272 251 222 182 162 159 155 156 159 162 166 170 171
292 292 294 295 299 301 302 301 300 300 299 297 298 300 301 301 300 299 297 295 292 288 281 276 274 277 277 275 271 263 250 238 233 231 225 219 210 201 191 184 183 185 185
292 290 291 293 297 299 300 299 298 296 295 294 294 296 297 297 296 294 291 289 286 281 276 273 268 265 265 265 265 260 253 245 238 235 231 228 225 221 216 209 201 197 194
292 291 291 293 296 297 297 297 296 293 291 292 293 294 294 293 292 290 289 287 284 280 275 272 268 264 261 260 261 258 253 247 242 239 237 233 230 227 225 222 217 211 205
294 292 292 294 295 296 294 294 294 291 290 291 291 291 291 291 290 288 287 286 284 281 277 272 268 265 262 260 258 257 253 248 243 241 240 237 235 233 230 228 226 221 214
294 294 295 295 293 292 292 291 293 291 289 290 290 289 289 288 287 286 284 283 283 280 277 272 268 264 262 259 257 255 253 249 244 242 241 240 238 236 234 233 231 228 222
296 296 295 293 290 289 288 287 288 289 287 288 289 288 287 286 284 283 282 281 281 279 277 274 269 266 262 259 256 255 253 250 246 243 242 242 242 240 238 236 234 232 229
294 295 293 291 289 287 285 285 286 287 286 285 287 288 286 285 283 280 280 279 278 278 276 274 269 266 263 260 257 255 253 250 247 245 243 242 242 243 241 238 236 234 233
294 294 293 292 289 287 286 285 286 287 286 283 283 284 283 283 281 279 279 277 277 277 275 273 269 266 263 261 257 254 253 250 248 246 243 242 242 242 243 241 238 236 236
291 292 292 291 289 287 287 286 285 286 286 283 281 279 278 278 278 278 280 277 276 275 273 271 267 264 262 261 258 254 252 250 248 246 245 243 243 242 243 244 242 239 238
288 288 289 289 290 288 286 287 286 284 284 284 283 280 277 276 275 276 277 274 274 273 271 270 267 262 261 261 260 258 254 251 248 248 247 245 243 242 243 243 242 240 237
288 288 288 287 287 286 284 285 286 284 282 280 279 277 276 276 275 273 273 272 271 269 267 267 266 262 260 259 258 256 256 254 250 249 249 247 244 243 245 244 241 239 239
284 285 286 284 284 284 282 282 282 283 281 278 278 276 274 274 274 271 269 269 268 265 263 262 262 260 258 258 258 255 253 250 248 248 250 248 246 246 245 242 241 241 239
280 282 283 283 284 283 283 284 283 281 282 280 278 275 274 273 272 270 266 266 265 262 261 259 259 259 259 257 256 254 251 249 246 246 247 247 246 246 246 244 241 241 242
279 279 281 282 283 283 283 283 282 281 279 278 278 275 273 272 270 269 265 264 261 259 259 256 255 257 258 255 254 252 250 249 246 245 244 245 246 245 245 244 242 241 243
277 277 280 282 285 286 285 283 282 281 279 276 276 273 272 273 270 266 262 261 258 255 256 254 253 253 253 252 252 249 248 247 247 245 244 245 245 244 243 243 243 241 242
276 278 280 284 285 285 285 283 283 284 283 280 278 273 271 271 269 264 259 259 256 253 252 251 250 250 249 249 248 246 246 246 245 244 243 243 242 242 242 243 243 242 241
280 282 284 286 287 286 285 283 284 283 283 284 283 276 270 269 267 262 258 256 255 249 248 246 245 245 245 246 245 244 244 244 242 241 241 240 239 239 240 242 244 243 242
283 284 286 287 288 287 285 283 282 281 281 284 284 282 275 269 265 258 256 254 247 242 243 241 240 242 243 243 242 241 240 241 241 240 239 239 237 237 240 242 242 242 243
286 287 287 288 290 291 287 284 283 283 284 283 282 281 277 272 265 256 254 251 243 240 240 241 239 240 241 240 238 239 240 240 239 239 239 238 237 239 240 242 242 243 243
290 289 289 290 290 291 289 286 284 284 283 284 284 282 279 274 265 256 254 246 243 240 239 241 240 239 240 239 239 238 238 238 237 237 237 237 237 238 239 242 243 242 242
293 292 293 293 292 290 289 287 285 284 283 282 282 280 278 272 264 257 254 249 245 241 240 241 240 240 240 240 239 239 238 237 237 237 237 237 237 237 237 239 241 241 242
294 295 295 294 293 292 290 289 286 284 283 281 280 277 275 270 265 260 257 252 248 246 244 243 242 241 239 239 239 239 239 239 237 237 237 237 237 237 236 237 240 242 243
Height
5923 5922 5921 5921 5920 5919 5918 5918 5917 5916 5915 5914 5913 5912 5911 5910 5909 5908 5907 5906 5906 5905 5904 5903 5903 5902 5901 5901 5900 5899 5899 5898 5898 5897 5897 5897 5896 5896 5896 5896 5896 5896 5897
5922 5921 5920 5920 5919 5918 5918 5917 5916 5915 5914 5913 5912 5911 5910 5909 5909 5908 5907 5906 5906 5905 5904 5904 5903 5903 5902 5901 5901 5900 5899 5899 5899 5898 5898 5897 5897 5897 5897 5897 5897 5897 5898
5921 5920 5919 5919 5918 5917 5917 5916 5915 5914 5913 5912 5911 5910 5909 5909 5908 5907 5907 5906 5906 5905 5904 5904 5903 5903 5902 5901 5901 5900 5900 5899 5899 5899 5898 5898 5898 5898 5898 5898 5898 5898 5899
5919 5918 5918 5917 5917 5916 5915 5915 5914 5913 5912 5911 5910 5909 5908 5908 5907 5906 5906 5906 5905 5904 5904 5903 5903 5902 5902 5901 5901 5900 5900 5899 5899 5899 5898 5898 5898 5898 5898 5898 5898 5899 5899
5917 5917 5916 5915 5915 5914 5913 5913 5912 5911 5910 5909 5908 5907 5907 5906 5906 5905 5905 5904 5904 5903 5903 5902 5902 5901 5901 5900 5900 5899 5899 5899 5898 5898 5898 5898 5898 5898 5898 5899 5899 5899 5900
5915 5914 5913 5913 5912 5912 5911 5911 5910 5909 5908 5907 5906 5906 5905 5904 5904 5903 5903 5902 5902 5901 5901 5901 5900 5899 5899 5899 5898 5898 5898 5898 5898 5898 5897 5897 5898 5898 5898 5899 5899 5899 5900
5913 5912 5911 5910 5910 5909 5909 5908 5907 5906 5905 5905 5904 5903 5902 5902 5901 5901 5900 5900 5899 5899 5899 5898 5898 5897 5897 5897 5896 5896 5896 5896 5896 5896 5897 5897 5897 5897 5898 5898 5899 5899 5900
5910 5909 5908 5908 5907 5906 5906 5905 5904 5903 5902 5902 5901 5900 5899 5899 5898 5898 5897 5897 5896 5896 5896 5895 5895 5894 5894 5894 5894 5894 5894 5894 5894 5895 5895 5896 5896 5896 5897 5898 5898 5899 5899
5908 5907 5906 5905 5904 5903 5902 5902 5901 5900 5899 5898 5897 5896 5896 5895 5894 5894 5893 5893 5892 5892 5892 5891 5891 5891 5890 5890 5890 5891 5891 5891 5892 5892 5893 5894 5894 5895 5896 5896 5897 5898 5898
5905 5904 5903 5902 5901 5900 5899 5898 5897 5896 5895 5894 5893 5892 5891 5890 5890 5889 5889 5888 5888 5887 5887 5887 5887 5887 5886 5886 5886 5887 5887 5887 5888 5889 5890 5891 5892 5893 5893 5894 5895 5896 5897
5902 5901 5900 5898 5897 5896 5895 5894 5893 5892 5890 5889 5888 5887 5886 5886 5885 5884 5884 5884 5883 5883 5882 5883 5882 5882 5882 5881 5882 5882 5883 5883 5884 5885 5886 5887 5888 5890 5890 5891 5892 5894 5895
5899 5898 5896 5895 5894 5892 5890 5889 5888 5887 5885 5884 5883 5882 5881 5880 5879 5879 5879 5878 5878 5877 5877 5877 5877 5877 5876 5876 5876 5877 5877 5878 5879 5880 5882 5883 5884 5885 5887 5888 5889 5890 5892
5895 5894 5892 5891 5889 5888 5886 5885 5883 5881 5880 5878 5877 5875 5874 5874 5873 5873 5873 5872 5872 5871 5871 5871 5871 5871 5871 5871 5871 5871 5872 5873 5874 5875 5876 5878 5879 5881 5882 5884 5885 5887 5888
5891 5889 5888 5886 5885 5883 5881 5879 5877 5875 5873 5871 5870 5868 5867 5867 5866 5866 5866 5865 5865 5865 5865 5865 5866 5865 5865 5865 5865 5866 5866 5868 5868 5869 5871 5872 5874 5876 5877 5878 5880 5882 5884
5886 5885 5883 5881 5879 5877 5875 5873 5871 5869 5867 5864 5863 5861 5860 5860 5859 5859 5859 5859 5859 5859 5859 5860 5860 5860 5860 5859 5859 5860 5861 5862 5862 5864 5865 5867 5868 5870 5872 5873 5874 5876 5878
5881 5879 5877 5875 5873 5871 5868 5866 5864 5862 5860 5857 5855 5853 5853 5852 5852 5852 5852 5852 5852 5852 5853 5853 5854 5854 5854 5854 5854 5855 5856 5856 5857 5859 5860 5861 5863 5865 5866 5867 5869 5871 5873
5875 5872 5870 5868 5866 5864 5861 5858 5855 5853 5851 5849 5847 5845 5844 5843 5843 5843 5844 5844 5844 5844 5845 5846 5847 5847 5848 5849 5849 5850 5851 5852 5853 5854 5855 5856 5858 5859 5861 5862 5864 5865 5867
5868 5866 5863 5861 5858 5855 5853 5850 5847 5844 5842 5840 5837 5835 5834 5833 5833 5834 5835 5836 5836 5837 5838 5839 5840 5841 5842 5843 5844 5844 5845 5847 5848 5849 5850 5851 5853 5854 5856 5857 5859 5860 5862
5861 5858 5856 5853 5850 5847 5844 5841 5838 5835 5832 5829 5827 5825 5824 5824 5824 5824 5826 5827 5828 5829 5830 5832 5833 5835 5836 5837 5838 5839 5840 5841 5843 5844 5846 5847 5848 5850 5851 5853 5854 5855 5857
5854 5851 5848 5845 5842 5838 5835 5832 5829 5826 5822 5819 5817 5816 5815 5814 5814 5814 5816 5817 5819 5821 5823 5825 5827 5828 5829 5831 5832 5833 5834 5836 5837 5839 5840 5842 5843 5845 5846 5847 5849 5850 5851
5846 5843 5840 5837 5833 5829 5826 5823 5820 5817 5814 5811 5809 5807 5806 5805 5805 5805 5807 5809 5810 5812 5815 5817 5819 5821 5823 5824 5826 5827 5829 5830 5832 5833 5835 5837 5838 5840 5841 5842 5844 5845 5846
5837 5835 5831 5828 5824 5820 5817 5814 5811 5808 5805 5804 5802 5799 5797 5796 5796 5797 5799 5800 5802 5804 5807 5809 5812 5814 5815 5817 5819 5821 5823 5825 5826 5828 5830 5832 5833 5835 5836 5838 5839 5840 5841
5829 5826 5822 5819 5815 5812 5809 5806 5803 5800 5797 5796 5794 5792 5790 5788 5789 5790 5792 5794 5795 5797 5800 5802 5804 5806 5808 5810 5812 5814 5816 5818 5820 5823 5824 5826 5828 5830 5832 5833 5835 5836 5837
5820 5817 5813 5810 5807 5804 5801 5798 5795 5792 5789 5788 5786 5785 5783 5782 5782 5783 5785 5787 5788 5790 5792 5795 5797 5799 5801 5803 5805 5807 5810 5812 5814 5817 5819 5821 5823 5825 5827 5829 5830 5831 5833
5811 5808 5804 5801 5797 5794 5791 5788 5785 5782 5780 5779 5777 5776 5775 5775 5775 5776 5776 5778 5779 5781 5784 5786 5789 5791 5793 5795 5797 5800 5802 5805 5807 5810 5812 5815 5817 5819 5821 5823 5825 5827 5828
5802 5799 5795 5791 5787 5784 5781 5777 5775 5773 5770 5769 5767 5766 5765 5766 5766 5767 5767 5768 5770 5772 5774 5776 5779 5782 5784 5787 5789 5792 5794 5797 5800 5803 5805 5808 5810 5813 5815 5818 5820 5821 5823